Time,TemperatureF,DewpointF,PressureIn,WindDirection,WindDirectionDegrees,WindSpeedMPH,WindSpeedGustMPH,Humidity,HourlyPrecipIn,Conditions,Clouds,dailyrainin,SoftwareType,DateUTC
2013-03-25 00:00:00,29.1,23.1,29.67,North,0,2.7,2.7,78,0.00,,,0.00,WUHU21623XXSP,2013-03-25 04:00:00,
2013-03-25 00:05:00,29.1,23.1,29.67,NE,45,2.9,2.9,78,0.00,,,0.00,WUHU21623XXSP,2013-03-25 04:05:00,
2013-03-25 00:10:00,29.1,23.1,29.67,North,0,3.6,3.6,78,0.00,,,0.00,WUHU21623XXSP,2013-03-25 04:10:00,
2013-03-25 00:15:00,29.1,23.1,29.67,NNE,22,0.0,3.6,78,0.00,,,0.00,WUHU21623XXSP,2013-03-25 04:15:00,
2013-03-25 00:20:00,29.1,23.1,29.67,SW,225,0.0,0.9,78,0.00,,,0.00,WUHU21623XXSP,2013-03-25 04:20:00,
2013-03-25 00:25:00,29.1,23.1,29.67,NNE,22,0.0,0.9,78,0.00,,,0.00,WUHU21623XXSP,2013-03-25 04:25:00,
2013-03-25 00:30:00,29.1,22.8,29.67,NNE,22,5.8,5.8,77,0.00,,,0.00,WUHU21623XXSP,2013-03-25 04:30:00,
2013-03-25 00:35:00,29.3,22.9,29.67,South,180,0.0,5.8,77,0.00,,,0.00,WUHU21623XXSP,2013-03-25 04:35:00,
2013-03-25 00:40:00,29.3,22.9,29.67,NE,45,0.0,5.8,77,0.00,,,0.00,WUHU21623XXSP,2013-03-25 04:40:00,
2013-03-25 00:45:00,29.3,22.9,29.67,SSE,157,2.0,2.0,77,0.00,,,0.00,WUHU21623XXSP,2013-03-25 04:45:00,
2013-03-25 00:50:00,29.5,22.9,29.67,North,0,2.2,2.2,77,0.00,,,0.00,WUHU21623XXSP,2013-03-25 04:50:00,
2013-03-25 00:55:00,29.5,23.1,29.66,NE,45,0.0,5.1,77,0.00,,,0.00,WUHU21623XXSP,2013-03-25 04:55:00,
2013-03-25 01:00:00,29.5,23.1,29.66,NE,45,6.7,6.7,77,0.00,,,0.00,WUHU21623XXSP,2013-03-25 05:00:00,
2013-03-25 01:05:00,29.5,23.1,29.66,NNW,337,0.0,6.7,77,0.00,,,0.00,WUHU21623XXSP,2013-03-25 05:05:00,
2013-03-25 01:10:00,29.5,23.1,29.67,North,0,0.0,6.7,77,0.00,,,0.00,WUHU21623XXSP,2013-03-25 05:10:00,
2013-03-25 01:15:00,29.5,23.1,29.66,NE,45,0.0,2.5,77,0.00,,,0.00,WUHU21623XXSP,2013-03-25 05:15:00,
2013-03-25 01:20:00,29.5,23.1,29.67,North,0,7.4,7.4,77,0.00,,,0.00,WUHU21623XXSP,2013-03-25 05:20:00,
2013-03-25 01:25:00,29.5,23.1,29.66,NNW,337,3.6,7.4,77,0.00,,,0.00,WUHU21623XXSP,2013-03-25 05:25:00,
2013-03-25 01:30:00,29.7,23.3,29.66,NNW,337,0.0,3.6,77,0.00,,,0.00,WUHU21623XXSP,2013-03-25 05:30:00,
2013-03-25 01:35:00,29.7,23.3,29.66,NE,45,0.0,0.0,77,0.00,,,0.00,WUHU21623XXSP,2013-03-25 05:35:00,
2013-03-25 01:40:00,29.7,23.3,29.66,NNW,337,1.8,3.1,77,0.00,,,0.00,WUHU21623XXSP,2013-03-25 05:40:00,
2013-03-25 01:45:00,29.8,23.5,29.66,NE,45,0.0,3.1,77,0.00,,,0.00,WUHU21623XXSP,2013-03-25 05:45:00,
2013-03-25 01:50:00,29.8,23.5,29.65,NNE,22,0.0,0.0,77,0.00,,,0.00,WUHU21623XXSP,2013-03-25 05:50:00,
2013-03-25 01:55:00,29.8,23.5,29.66,NNE,22,1.3,1.3,77,0.00,,,0.00,WUHU21623XXSP,2013-03-25 05:55:00,
2013-03-25 02:00:00,29.8,23.5,29.65,NNE,22,1.3,1.3,77,0.00,,,0.00,WUHU21623XXSP,2013-03-25 06:00:00,
2013-03-25 02:05:00,29.8,23.5,29.66,NNE,22,4.0,4.0,77,0.00,,,0.00,WUHU21623XXSP,2013-03-25 06:05:00,
2013-03-25 02:10:00,29.8,23.5,29.65,North,0,0.0,4.0,77,0.00,,,0.00,WUHU21623XXSP,2013-03-25 06:10:00,
2013-03-25 02:15:00,29.8,23.5,29.65,North,0,7.8,7.8,77,0.00,,,0.00,WUHU21623XXSP,2013-03-25 06:15:00,
2013-03-25 02:20:00,29.8,23.5,29.65,NE,45,0.0,7.8,77,0.00,,,0.00,WUHU21623XXSP,2013-03-25 06:20:00,
2013-03-25 02:25:00,30.0,23.6,29.65,North,0,2.7,2.7,77,0.00,,,0.00,WUHU21623XXSP,2013-03-25 06:25:00,
2013-03-25 02:30:00,29.8,23.5,29.65,NE,45,0.0,2.7,77,0.00,,,0.00,WUHU21623XXSP,2013-03-25 06:30:00,
2013-03-25 02:35:00,29.8,23.5,29.65,North,0,1.1,1.1,77,0.00,,,0.00,WUHU21623XXSP,2013-03-25 06:35:00,
2013-03-25 02:40:00,29.8,23.5,29.65,NE,45,0.0,3.4,77,0.00,,,0.00,WUHU21623XXSP,2013-03-25 06:40:00,
2013-03-25 02:45:00,29.8,23.5,29.65,North,0,3.8,3.8,77,0.00,,,0.00,WUHU21623XXSP,2013-03-25 06:45:00,
2013-03-25 02:50:00,29.8,23.5,29.65,NE,45,4.0,4.0,77,0.00,,,0.00,WUHU21623XXSP,2013-03-25 06:50:00,
2013-03-25 02:55:00,29.8,23.5,29.65,NNW,337,0.0,4.0,77,0.00,,,0.00,WUHU21623XXSP,2013-03-25 06:55:00,
2013-03-25 03:00:00,29.8,23.5,29.64,NNW,337,0.0,2.7,77,0.00,,,0.00,WUHU21623XXSP,2013-03-25 07:00:00,
2013-03-25 03:05:00,30.0,23.6,29.64,NNE,22,0.0,0.0,77,0.00,,,0.00,WUHU21623XXSP,2013-03-25 07:05:00,
2013-03-25 03:10:00,29.8,23.6,29.64,NNE,22,0.0,0.0,77,0.00,,,0.00,WUHU21623XXSP,2013-03-25 07:10:00,
2013-03-25 03:15:00,29.8,23.5,29.64,North,0,2.7,2.7,77,0.00,,,0.00,WUHU21623XXSP,2013-03-25 07:15:00,
2013-03-25 03:20:00,29.8,23.5,29.64,NE,45,0.0,3.6,77,0.00,,,0.00,WUHU21623XXSP,2013-03-25 07:20:00,
2013-03-25 03:25:00,29.8,23.5,29.63,NNE,22,0.0,3.6,77,0.00,,,0.00,WUHU21623XXSP,2013-03-25 07:25:00,
2013-03-25 03:30:00,29.8,23.5,29.63,NE,45,1.8,6.0,77,0.00,,,0.00,WUHU21623XXSP,2013-03-25 07:30:00,
2013-03-25 03:35:00,29.8,23.5,29.62,NNW,337,0.0,6.0,77,0.00,,,0.00,WUHU21623XXSP,2013-03-25 07:35:00,
2013-03-25 03:40:00,30.0,23.6,29.62,SSE,157,1.1,1.8,77,0.00,,,0.00,WUHU21623XXSP,2013-03-25 07:40:00,
2013-03-25 03:45:00,30.0,23.6,29.62,NNW,337,1.1,1.8,77,0.00,,,0.00,WUHU21623XXSP,2013-03-25 07:45:00,
2013-03-25 03:50:00,30.0,23.6,29.62,South,180,0.0,7.6,77,0.00,,,0.00,WUHU21623XXSP,2013-03-25 07:50:00,
2013-03-25 03:55:00,30.0,23.6,29.62,NE,45,2.9,7.6,77,0.00,,,0.00,WUHU21623XXSP,2013-03-25 07:55:00,
2013-03-25 04:00:00,30.0,23.6,29.62,NNE,22,0.0,2.9,77,0.00,,,0.00,WUHU21623XXSP,2013-03-25 08:00:00,
2013-03-25 04:05:00,30.0,23.6,29.62,North,0,0.0,0.0,77,0.00,,,0.00,WUHU21623XXSP,2013-03-25 08:05:00,
2013-03-25 04:10:00,30.0,23.6,29.62,NNE,22,2.9,3.1,77,0.00,,,0.00,WUHU21623XXSP,2013-03-25 08:10:00,
2013-03-25 04:15:00,30.0,23.6,29.62,NNW,337,0.0,3.1,77,0.00,,,0.00,WUHU21623XXSP,2013-03-25 08:15:00,
2013-03-25 04:20:00,30.0,23.6,29.62,North,0,0.0,7.4,77,0.00,,,0.00,WUHU21623XXSP,2013-03-25 08:20:00,
2013-03-25 04:25:00,30.2,23.8,29.61,NE,45,2.9,7.4,77,0.00,,,0.00,WUHU21623XXSP,2013-03-25 08:25:00,
2013-03-25 04:30:00,30.2,23.8,29.62,NE,45,0.0,2.9,77,0.00,,,0.00,WUHU21623XXSP,2013-03-25 08:30:00,
2013-03-25 04:35:00,30.2,23.8,29.62,NNE,22,10.1,10.1,77,0.00,,,0.00,WUHU21623XXSP,2013-03-25 08:35:00,
2013-03-25 04:40:00,30.4,24.0,29.61,NNW,337,2.9,10.1,77,0.00,,,0.00,WUHU21623XXSP,2013-03-25 08:40:00,
2013-03-25 04:45:00,30.4,24.0,29.62,NE,45,1.6,3.8,77,0.00,,,0.00,WUHU21623XXSP,2013-03-25 08:45:00,
2013-03-25 04:50:00,30.4,24.0,29.62,NNW,337,2.2,3.8,77,0.00,,,0.00,WUHU21623XXSP,2013-03-25 08:50:00,
2013-03-25 04:55:00,30.4,24.0,29.61,SSE,157,0.0,2.2,77,0.00,,,0.00,WUHU21623XXSP,2013-03-25 08:55:00,
2013-03-25 05:00:00,30.4,24.0,29.62,NNE,22,0.0,2.2,77,0.00,,,0.00,WUHU21623XXSP,2013-03-25 09:00:00,
2013-03-25 05:05:00,30.4,24.0,29.62,South,180,0.0,0.0,77,0.00,,,0.00,WUHU21623XXSP,2013-03-25 09:05:00,
2013-03-25 05:10:00,30.4,24.0,29.61,NE,45,0.7,5.1,77,0.00,,,0.00,WUHU21623XXSP,2013-03-25 09:10:00,
2013-03-25 05:15:00,30.4,24.0,29.61,NE,45,4.0,5.1,77,0.00,,,0.00,WUHU21623XXSP,2013-03-25 09:15:00,
2013-03-25 05:20:00,30.4,24.0,29.61,SSE,157,2.9,4.0,77,0.00,,,0.00,WUHU21623XXSP,2013-03-25 09:20:00,
2013-03-25 05:25:00,30.4,24.0,29.61,NNW,337,2.2,5.4,77,0.00,,,0.00,WUHU21623XXSP,2013-03-25 09:25:00,
2013-03-25 05:30:00,30.4,24.0,29.61,NNE,22,0.0,5.4,77,0.00,,,0.00,WUHU21623XXSP,2013-03-25 09:30:00,
2013-03-25 05:35:00,30.4,24.0,29.61,NNW,337,3.4,6.5,77,0.00,,,0.00,WUHU21623XXSP,2013-03-25 09:35:00,
2013-03-25 05:40:00,30.4,24.0,29.61,NE,45,2.9,6.5,77,0.00,,,0.00,WUHU21623XXSP,2013-03-25 09:40:00,
2013-03-25 05:45:00,30.2,23.8,29.61,NNW,337,2.9,4.9,77,0.00,,,0.00,WUHU21623XXSP,2013-03-25 09:45:00,
2013-03-25 05:50:00,30.2,23.8,29.61,NE,45,1.6,4.9,77,0.00,,,0.00,WUHU21623XXSP,2013-03-25 09:50:00,
2013-03-25 05:55:00,30.2,23.8,29.61,North,0,5.1,5.1,77,0.00,,,0.00,WUHU21623XXSP,2013-03-25 09:55:00,
2013-03-25 06:00:00,30.2,23.8,29.61,NE,45,0.0,7.4,77,0.00,,,0.00,WUHU21623XXSP,2013-03-25 10:00:00,
2013-03-25 06:05:00,30.2,24.2,29.60,NE,45,0.0,7.4,78,0.00,,,0.00,WUHU21623XXSP,2013-03-25 10:05:00,
2013-03-25 06:10:00,30.2,24.2,29.60,SSW,202,1.3,7.6,78,0.00,,,0.00,WUHU21623XXSP,2013-03-25 10:10:00,
2013-03-25 06:15:00,30.2,24.2,29.61,SW,225,0.0,7.6,78,0.00,,,0.00,WUHU21623XXSP,2013-03-25 10:15:00,
2013-03-25 06:20:00,30.2,24.2,29.61,NE,45,4.7,6.5,78,0.00,,,0.00,WUHU21623XXSP,2013-03-25 10:20:00,
2013-03-25 06:25:00,30.2,24.2,29.61,NE,45,0.0,6.5,78,0.00,,,0.00,WUHU21623XXSP,2013-03-25 10:25:00,
2013-03-25 06:30:00,30.2,24.2,29.61,NE,45,6.3,6.3,78,0.00,,,0.00,WUHU21623XXSP,2013-03-25 10:30:00,
2013-03-25 06:35:00,30.2,24.2,29.61,NE,45,0.0,6.3,78,0.00,,,0.00,WUHU21623XXSP,2013-03-25 10:35:00,
2013-03-25 06:40:00,30.2,24.2,29.61,NE,45,3.1,3.1,78,0.00,,,0.00,WUHU21623XXSP,2013-03-25 10:40:00,
2013-03-25 06:45:00,30.2,24.2,29.61,NNW,337,4.5,6.7,78,0.00,,,0.00,WUHU21623XXSP,2013-03-25 10:45:00,
2013-03-25 06:50:00,30.2,24.2,29.62,NNW,337,4.5,6.7,78,0.00,,,0.00,WUHU21623XXSP,2013-03-25 10:50:00,
2013-03-25 06:55:00,30.2,24.2,29.62,SSW,202,1.1,4.5,78,0.00,,,0.00,WUHU21623XXSP,2013-03-25 10:55:00,
2013-03-25 07:00:00,30.2,24.2,29.62,North,0,6.5,6.5,78,0.00,,,0.00,WUHU21623XXSP,2013-03-25 11:00:00,
2013-03-25 07:05:00,30.2,24.2,29.62,North,0,2.0,6.5,78,0.00,,,0.00,WUHU21623XXSP,2013-03-25 11:05:00,
2013-03-25 07:10:00,30.0,24.0,29.62,South,180,1.3,7.8,78,0.00,,,0.00,WUHU21623XXSP,2013-03-25 11:10:00,
2013-03-25 07:15:00,30.2,24.2,29.62,South,180,1.3,7.8,78,0.00,,,0.00,WUHU21623XXSP,2013-03-25 11:15:00,
2013-03-25 07:20:00,30.2,24.2,29.62,SSW,202,2.2,2.2,78,0.00,,,0.00,WUHU21623XXSP,2013-03-25 11:20:00,
2013-03-25 07:25:00,30.2,24.2,29.62,NNE,22,8.3,8.3,78,0.00,,,0.00,WUHU21623XXSP,2013-03-25 11:25:00,
2013-03-25 07:30:00,30.0,24.0,29.62,NNW,337,1.1,8.3,78,0.00,,,0.00,WUHU21623XXSP,2013-03-25 11:30:00,
2013-03-25 07:35:00,30.0,24.0,29.62,NNW,337,0.0,8.3,78,0.00,,,0.00,WUHU21623XXSP,2013-03-25 11:35:00,
2013-03-25 07:40:00,30.0,24.0,29.62,NNE,22,0.0,6.9,78,0.00,,,0.00,WUHU21623XXSP,2013-03-25 11:40:00,
2013-03-25 07:45:00,30.2,24.2,29.62,NNE,22,0.0,6.9,78,0.00,,,0.00,WUHU21623XXSP,2013-03-25 11:45:00,
2013-03-25 07:50:00,30.2,24.2,29.62,North,0,0.0,0.0,78,0.00,,,0.00,WUHU21623XXSP,2013-03-25 11:50:00,
2013-03-25 07:55:00,30.2,24.2,29.62,NNW,337,0.2,0.2,78,0.00,,,0.00,WUHU21623XXSP,2013-03-25 11:55:00,
2013-03-25 08:00:00,30.4,24.0,29.63,NNE,22,4.9,7.2,77,0.00,,,0.00,WUHU21623XXSP,2013-03-25 12:00:00,
2013-03-25 08:05:00,30.2,23.8,29.63,South,180,0.0,7.2,77,0.00,,,0.00,WUHU21623XXSP,2013-03-25 12:05:00,
2013-03-25 08:10:00,30.4,24.0,29.63,North,0,4.9,6.0,77,0.00,,,0.00,WUHU21623XXSP,2013-03-25 12:10:00,
2013-03-25 08:15:00,30.6,24.2,29.63,North,0,2.0,6.0,77,0.00,,,0.00,WUHU21623XXSP,2013-03-25 12:15:00,
2013-03-25 08:20:00,30.6,24.2,29.63,NNE,22,0.0,2.9,77,0.00,,,0.00,WUHU21623XXSP,2013-03-25 12:20:00,
2013-03-25 08:25:00,30.7,24.4,29.64,SSW,202,1.6,2.9,77,0.00,,,0.00,WUHU21623XXSP,2013-03-25 12:25:00,
2013-03-25 08:30:00,30.7,24.4,29.64,SSE,157,5.1,7.4,77,0.00,,,0.00,WUHU21623XXSP,2013-03-25 12:30:00,
2013-03-25 08:35:00,30.7,24.4,29.64,SSW,202,0.0,7.4,77,0.00,,,0.00,WUHU21623XXSP,2013-03-25 12:35:00,
2013-03-25 08:40:00,30.7,24.0,29.64,SSW,202,0.0,0.9,77,0.00,,,0.00,WUHU21623XXSP,2013-03-25 12:40:00,
2013-03-25 08:45:00,30.7,24.4,29.64,NNW,337,7.8,7.8,77,0.00,,,0.00,WUHU21623XXSP,2013-03-25 12:45:00,
2013-03-25 08:50:00,30.7,24.4,29.64,NNE,22,0.0,7.8,77,0.00,,,0.00,WUHU21623XXSP,2013-03-25 12:50:00,
2013-03-25 08:55:00,30.9,24.2,29.64,NE,45,0.0,6.5,76,0.00,,,0.00,WUHU21623XXSP,2013-03-25 12:55:00,
2013-03-25 09:00:00,31.1,24.4,29.65,SW,225,0.0,6.5,76,0.00,,,0.00,WUHU21623XXSP,2013-03-25 13:00:00,
2013-03-25 09:05:00,31.1,24.4,29.65,SSW,202,2.2,8.3,76,0.00,,,0.00,WUHU21623XXSP,2013-03-25 13:05:00,
2013-03-25 09:10:00,31.3,24.6,29.65,North,0,4.7,8.3,76,0.00,,,0.00,WUHU21623XXSP,2013-03-25 13:10:00,
2013-03-25 09:15:00,31.1,24.4,29.65,NNW,337,1.8,7.4,76,0.00,,,0.00,WUHU21623XXSP,2013-03-25 13:15:00,
2013-03-25 09:20:00,31.3,24.6,29.65,SW,225,0.0,1.8,76,0.00,,,0.00,WUHU21623XXSP,2013-03-25 13:20:00,
2013-03-25 09:25:00,31.5,24.4,29.65,SSE,157,0.0,3.4,75,0.00,,,0.00,WUHU21623XXSP,2013-03-25 13:25:00,
2013-03-25 09:30:00,31.5,24.4,29.65,NNW,337,6.0,6.0,75,0.00,,,0.00,WUHU21623XXSP,2013-03-25 13:30:00,
2013-03-25 09:35:00,31.6,24.6,29.65,NE,45,0.7,6.0,75,0.00,,,0.00,WUHU21623XXSP,2013-03-25 13:35:00,
2013-03-25 09:40:00,31.6,24.6,29.65,NNW,337,4.5,4.5,75,0.00,,,0.00,WUHU21623XXSP,2013-03-25 13:40:00,
2013-03-25 09:45:00,31.6,24.6,29.65,NNW,337,0.0,4.5,75,0.00,,,0.00,WUHU21623XXSP,2013-03-25 13:45:00,
2013-03-25 09:50:00,31.8,24.8,29.65,NNW,337,2.0,2.2,75,0.00,,,0.00,WUHU21623XXSP,2013-03-25 13:50:00,
2013-03-25 09:55:00,31.8,24.8,29.65,North,0,0.0,2.2,75,0.00,,,0.00,WUHU21623XXSP,2013-03-25 13:55:00,
2013-03-25 10:00:00,31.8,24.8,29.65,NNE,22,0.0,2.0,75,0.00,,,0.00,WUHU21623XXSP,2013-03-25 14:00:00,
2013-03-25 10:05:00,32.2,25.1,29.65,NE,45,0.0,2.7,75,0.00,,,0.00,WUHU21623XXSP,2013-03-25 14:05:00,
2013-03-25 10:10:00,32.2,25.1,29.66,NE,45,6.3,6.3,75,0.00,,,0.00,WUHU21623XXSP,2013-03-25 14:10:00,
2013-03-25 10:15:00,32.4,25.0,29.66,NNE,22,2.7,6.3,74,0.00,,,0.00,WUHU21623XXSP,2013-03-25 14:15:00,
2013-03-25 10:20:00,32.7,25.3,29.66,NE,45,6.7,21.7,74,0.00,,,0.00,WUHU21623XXSP,2013-03-25 14:20:00,
2013-03-25 10:25:00,32.7,25.3,29.66,NNE,22,2.0,21.7,74,0.00,,,0.00,WUHU21623XXSP,2013-03-25 14:25:00,
2013-03-25 10:30:00,32.7,25.3,29.66,NNE,22,1.8,6.7,74,0.00,,,0.00,WUHU21623XXSP,2013-03-25 14:30:00,
2013-03-25 10:35:00,33.1,25.3,29.66,NE,45,3.6,3.6,73,0.00,,,0.00,WUHU21623XXSP,2013-03-25 14:35:00,
2013-03-25 10:40:00,33.1,25.3,29.67,NNE,22,6.5,6.5,73,0.00,,,0.00,WUHU21623XXSP,2013-03-25 14:40:00,
2013-03-25 10:45:00,33.4,25.6,29.66,NNE,22,4.5,6.5,73,0.00,,,0.00,WUHU21623XXSP,2013-03-25 14:45:00,
2013-03-25 10:50:00,33.4,25.3,29.66,SSE,157,0.0,5.1,72,0.00,,,0.00,WUHU21623XXSP,2013-03-25 14:50:00,
2013-03-25 10:55:00,33.4,25.3,29.67,NE,45,0.0,5.1,72,0.00,,,0.00,WUHU21623XXSP,2013-03-25 14:55:00,
2013-03-25 11:00:00,33.6,25.5,29.67,NE,45,8.3,8.3,72,0.00,,,0.00,WUHU21623XXSP,2013-03-25 15:00:00,
2013-03-25 11:05:00,33.6,25.5,29.67,North,0,3.8,8.3,72,0.00,,,0.00,WUHU21623XXSP,2013-03-25 15:05:00,
2013-03-25 11:10:00,33.6,25.5,29.67,North,0,1.8,3.8,72,0.00,,,0.00,WUHU21623XXSP,2013-03-25 15:10:00,
2013-03-25 11:15:00,33.6,25.5,29.67,North,0,2.7,2.7,72,0.00,,,0.00,WUHU21623XXSP,2013-03-25 15:15:00,
2013-03-25 11:20:00,33.6,25.8,29.68,NE,45,0.0,2.7,73,0.00,,,0.00,WUHU21623XXSP,2013-03-25 15:20:00,
2013-03-25 11:25:00,33.6,25.8,29.67,NNE,22,3.6,3.6,73,0.00,,,0.00,WUHU21623XXSP,2013-03-25 15:25:00,
2013-03-25 11:30:00,33.6,25.5,29.67,NNW,337,3.1,3.6,72,0.00,,,0.00,WUHU21623XXSP,2013-03-25 15:30:00,
2013-03-25 11:35:00,33.6,25.5,29.67,South,180,0.0,17.4,72,0.00,,,0.00,WUHU21623XXSP,2013-03-25 15:35:00,
2013-03-25 11:40:00,33.8,25.6,29.67,SSE,157,6.5,17.4,72,0.00,,,0.00,WUHU21623XXSP,2013-03-25 15:40:00,
2013-03-25 11:45:00,34.0,25.8,29.68,NNW,337,1.1,6.5,72,0.00,,,0.00,WUHU21623XXSP,2013-03-25 15:45:00,
2013-03-25 11:50:00,34.3,25.8,29.68,NNW,337,2.2,3.4,71,0.00,,,0.00,WUHU21623XXSP,2013-03-25 15:50:00,
2013-03-25 11:55:00,34.9,26.4,29.67,SW,225,2.7,3.4,71,0.00,,,0.00,WUHU21623XXSP,2013-03-25 15:55:00,
2013-03-25 12:00:00,35.2,26.7,29.67,South,180,0.0,2.7,71,0.00,,,0.00,WUHU21623XXSP,2013-03-25 16:00:00,
2013-03-25 12:05:00,35.4,26.6,29.67,NNE,22,6.0,6.0,70,0.00,,,0.00,WUHU21623XXSP,2013-03-25 16:05:00,
2013-03-25 12:10:00,35.8,27.0,29.68,NE,45,4.5,7.4,70,0.00,,,0.00,WUHU21623XXSP,2013-03-25 16:10:00,
2013-03-25 12:15:00,36.0,27.1,29.68,NNE,22,0.0,7.4,70,0.00,,,0.00,WUHU21623XXSP,2013-03-25 16:15:00,
2013-03-25 12:20:00,36.3,27.1,29.68,NE,45,4.3,4.3,69,0.00,,,0.00,WUHU21623XXSP,2013-03-25 16:20:00,
2013-03-25 12:25:00,36.3,26.8,29.68,NNW,337,1.6,6.0,68,0.00,,,0.00,WUHU21623XXSP,2013-03-25 16:25:00,
2013-03-25 12:30:00,36.3,26.8,29.68,South,180,6.3,6.3,68,0.00,,,0.00,WUHU21623XXSP,2013-03-25 16:30:00,
2013-03-25 12:35:00,36.5,26.9,29.68,SSE,157,1.1,6.9,68,0.00,,,0.00,WUHU21623XXSP,2013-03-25 16:35:00,
2013-03-25 12:40:00,36.7,27.1,29.68,NNE,22,4.3,6.9,68,0.00,,,0.00,WUHU21623XXSP,2013-03-25 16:40:00,
2013-03-25 12:45:00,36.5,26.6,29.68,NNW,337,12.5,12.5,67,0.00,,,0.00,WUHU21623XXSP,2013-03-25 16:45:00,
2013-03-25 12:50:00,36.3,26.8,29.68,NNW,337,7.8,12.5,68,0.00,,,0.00,WUHU21623XXSP,2013-03-25 16:50:00,
2013-03-25 12:55:00,36.5,26.9,29.68,NE,45,12.3,12.3,68,0.00,,,0.00,WUHU21623XXSP,2013-03-25 16:55:00,
2013-03-25 13:00:00,36.9,27.3,29.68,NNE,22,4.3,12.3,68,0.00,,,0.00,WUHU21623XXSP,2013-03-25 17:00:00,
2013-03-25 13:05:00,37.0,27.5,29.69,NNW,337,7.2,7.2,67,0.00,,,0.00,WUHU21623XXSP,2013-03-25 17:05:00,
2013-03-25 13:10:00,37.0,26.7,29.68,NNE,22,2.9,7.2,66,0.00,,,0.00,WUHU21623XXSP,2013-03-25 17:10:00,
2013-03-25 13:15:00,36.9,26.9,29.69,North,0,1.3,6.5,67,0.00,,,0.00,WUHU21623XXSP,2013-03-25 17:15:00,
2013-03-25 13:20:00,37.0,26.7,29.69,SSE,157,4.9,6.9,66,0.00,,,0.00,WUHU21623XXSP,2013-03-25 17:20:00,
2013-03-25 13:25:00,37.0,26.7,29.69,NNW,337,16.1,16.1,66,0.00,,,0.00,WUHU21623XXSP,2013-03-25 17:25:00,
2013-03-25 13:30:00,36.7,26.5,29.69,North,0,3.1,16.1,66,0.00,,,0.00,WUHU21623XXSP,2013-03-25 17:30:00,
2013-03-25 13:35:00,36.9,26.9,29.70,NNW,337,0.0,3.1,67,0.00,,,0.00,WUHU21623XXSP,2013-03-25 17:35:00,
2013-03-25 13:40:00,36.9,26.5,29.69,NNW,337,6.9,6.9,66,0.00,,,0.00,WUHU21623XXSP,2013-03-25 17:40:00,
2013-03-25 13:45:00,36.5,26.2,29.70,NNW,337,6.7,6.9,66,0.00,,,0.00,WUHU21623XXSP,2013-03-25 17:45:00,
2013-03-25 13:50:00,36.5,26.6,29.70,NNE,22,0.0,6.9,67,0.00,,,0.00,WUHU21623XXSP,2013-03-25 17:50:00,
2013-03-25 13:55:00,36.7,26.7,29.70,NNW,337,0.0,7.8,67,0.00,,,0.00,WUHU21623XXSP,2013-03-25 17:55:00,
2013-03-25 14:00:00,36.5,26.6,29.70,NNW,337,6.5,7.8,67,0.00,,,0.00,WUHU21623XXSP,2013-03-25 18:00:00,
2013-03-25 14:05:00,36.5,26.6,29.70,NE,45,1.3,6.5,67,0.00,,,0.00,WUHU21623XXSP,2013-03-25 18:05:00,
2013-03-25 14:10:00,36.5,26.6,29.70,NNW,337,4.3,4.3,67,0.00,,,0.00,WUHU21623XXSP,2013-03-25 18:10:00,
2013-03-25 14:15:00,36.5,26.6,29.70,NNW,337,2.5,4.3,67,0.00,,,0.00,WUHU21623XXSP,2013-03-25 18:15:00,
2013-03-25 14:20:00,36.3,26.4,29.71,NNW,337,3.4,10.5,67,0.00,,,0.00,WUHU21623XXSP,2013-03-25 18:20:00,
2013-03-25 14:25:00,36.5,26.6,29.70,North,0,7.8,10.5,67,0.00,,,0.00,WUHU21623XXSP,2013-03-25 18:25:00,
2013-03-25 14:30:00,36.7,26.7,29.71,North,0,7.8,7.8,67,0.00,,,0.00,WUHU21623XXSP,2013-03-25 18:30:00,
2013-03-25 14:35:00,37.0,27.1,29.71,North,0,6.5,7.8,67,0.00,,,0.00,WUHU21623XXSP,2013-03-25 18:35:00,
2013-03-25 14:40:00,37.2,27.3,29.70,NE,45,3.8,7.8,67,0.00,,,0.00,WUHU21623XXSP,2013-03-25 18:40:00,
2013-03-25 14:45:00,37.8,27.8,29.71,NNE,22,0.0,3.8,67,0.00,,,0.00,WUHU21623XXSP,2013-03-25 18:45:00,
2013-03-25 14:50:00,38.1,28.1,29.71,North,0,0.0,2.9,67,0.00,,,0.00,WUHU21623XXSP,2013-03-25 18:50:00,
2013-03-25 14:55:00,38.5,28.4,29.71,NNE,22,3.6,3.6,67,0.00,,,0.00,WUHU21623XXSP,2013-03-25 18:55:00,
2013-03-25 15:00:00,38.5,28.4,29.71,NNW,337,0.0,3.6,67,0.00,,,0.00,WUHU21623XXSP,2013-03-25 19:00:00,
2013-03-25 15:05:00,39.0,28.5,29.71,NE,45,0.0,7.4,66,0.00,,,0.00,WUHU21623XXSP,2013-03-25 19:05:00,
2013-03-25 15:10:00,39.0,28.5,29.71,North,0,6.9,7.4,66,0.00,,,0.00,WUHU21623XXSP,2013-03-25 19:10:00,
2013-03-25 15:15:00,39.0,28.1,29.72,North,0,0.0,6.9,65,0.00,,,0.00,WUHU21623XXSP,2013-03-25 19:15:00,
2013-03-25 15:20:00,39.4,28.5,29.71,NNW,337,6.0,6.7,65,0.00,,,0.00,WUHU21623XXSP,2013-03-25 19:20:00,
2013-03-25 15:25:00,39.4,28.5,29.72,NE,45,0.0,6.0,65,0.00,,,0.00,WUHU21623XXSP,2013-03-25 19:25:00,
2013-03-25 15:30:00,39.4,28.5,29.72,North,0,1.8,2.7,65,0.00,,,0.00,WUHU21623XXSP,2013-03-25 19:30:00,
2013-03-25 15:35:00,38.8,28.0,29.72,NNW,337,3.1,4.5,65,0.00,,,0.00,WUHU21623XXSP,2013-03-25 19:35:00,
2013-03-25 15:40:00,38.5,27.7,29.72,NNW,337,13.2,13.2,65,0.00,,,0.00,WUHU21623XXSP,2013-03-25 19:40:00,
2013-03-25 15:45:00,38.3,27.5,29.72,North,0,5.6,13.2,65,0.00,,,0.00,WUHU21623XXSP,2013-03-25 19:45:00,
2013-03-25 15:50:00,37.9,27.2,29.73,NNE,22,6.9,8.1,65,0.00,,,0.00,WUHU21623XXSP,2013-03-25 19:50:00,
2013-03-25 15:55:00,37.8,27.4,29.73,NNE,22,5.8,8.1,66,0.00,,,0.00,WUHU21623XXSP,2013-03-25 19:55:00,
2013-03-25 16:00:00,37.8,27.4,29.73,NNE,22,12.3,12.3,66,0.00,,,0.00,WUHU21623XXSP,2013-03-25 20:00:00,
2013-03-25 16:05:00,37.6,27.2,29.72,NNW,337,7.8,12.3,66,0.00,,,0.00,WUHU21623XXSP,2013-03-25 20:05:00,
2013-03-25 16:10:00,37.6,27.2,29.73,NNW,337,6.7,7.8,66,0.00,,,0.00,WUHU21623XXSP,2013-03-25 20:10:00,
2013-03-25 16:15:00,37.6,27.2,29.73,North,0,8.7,8.7,66,0.00,,,0.00,WUHU21623XXSP,2013-03-25 20:15:00,
2013-03-25 16:20:00,37.8,27.0,29.73,SSE,157,0.0,8.7,65,0.00,,,0.00,WUHU21623XXSP,2013-03-25 20:20:00,
2013-03-25 16:25:00,37.8,27.0,29.73,NE,45,1.8,9.6,65,0.00,,,0.00,WUHU21623XXSP,2013-03-25 20:25:00,
2013-03-25 16:30:00,37.8,27.0,29.73,NNW,337,6.5,13.2,65,0.00,,,0.00,WUHU21623XXSP,2013-03-25 20:30:00,
2013-03-25 16:35:00,37.2,27.3,29.73,NNW,337,5.6,13.2,67,0.00,,,0.00,WUHU21623XXSP,2013-03-25 20:35:00,
2013-03-25 16:40:00,37.2,27.6,29.74,North,0,3.4,6.5,68,0.00,,,0.00,WUHU21623XXSP,2013-03-25 20:40:00,
2013-03-25 16:45:00,37.0,27.5,29.74,NNW,337,2.7,7.2,68,0.00,,,0.00,WUHU21623XXSP,2013-03-25 20:45:00,
2013-03-25 16:50:00,36.9,28.0,29.74,North,0,4.5,7.8,70,0.00,,,0.00,WUHU21623XXSP,2013-03-25 20:50:00,
2013-03-25 16:55:00,36.7,27.9,29.74,NNW,337,8.1,8.1,70,0.00,,,0.00,WUHU21623XXSP,2013-03-25 20:55:00,
2013-03-25 17:00:00,36.5,27.7,29.75,North,0,0.0,8.1,70,0.00,,,0.00,WUHU21623XXSP,2013-03-25 21:00:00,
2013-03-25 17:05:00,36.3,27.8,29.76,North,0,2.5,5.8,71,0.00,,,0.00,WUHU21623XXSP,2013-03-25 21:05:00,
2013-03-25 17:10:00,36.3,27.8,29.76,North,0,8.1,8.1,71,0.00,,,0.00,WUHU21623XXSP,2013-03-25 21:10:00,
2013-03-25 17:15:00,36.3,27.8,29.76,NNW,337,0.0,8.1,71,0.00,,,0.00,WUHU21623XXSP,2013-03-25 21:15:00,
2013-03-25 17:20:00,36.3,27.8,29.76,SSE,157,0.7,2.9,71,0.00,,,0.00,WUHU21623XXSP,2013-03-25 21:20:00,
2013-03-25 17:25:00,36.1,28.0,29.76,North,0,6.7,6.7,72,0.00,,,0.00,WUHU21623XXSP,2013-03-25 21:25:00,
2013-03-25 17:30:00,36.1,28.0,29.77,NNW,337,7.8,7.8,72,0.00,,,0.00,WUHU21623XXSP,2013-03-25 21:30:00,
2013-03-25 17:35:00,36.1,28.0,29.77,NNE,22,0.0,7.8,72,0.00,,,0.00,WUHU21623XXSP,2013-03-25 21:35:00,
2013-03-25 17:40:00,36.0,27.8,29.77,NNE,22,3.1,7.6,72,0.00,,,0.00,WUHU21623XXSP,2013-03-25 21:40:00,
2013-03-25 17:45:00,36.0,27.8,29.77,North,0,8.7,8.7,72,0.00,,,0.00,WUHU21623XXSP,2013-03-25 21:45:00,
2013-03-25 17:50:00,36.0,27.8,29.77,North,0,3.6,8.7,72,0.00,,,0.00,WUHU21623XXSP,2013-03-25 21:50:00,
2013-03-25 17:55:00,36.0,27.6,29.77,North,0,2.5,8.7,72,0.00,,,0.00,WUHU21623XXSP,2013-03-25 21:55:00,
2013-03-25 18:00:00,35.8,27.9,29.78,NNW,337,0.0,2.5,73,0.00,,,0.00,WUHU21623XXSP,2013-03-25 22:00:00,
2013-03-25 18:05:00,35.8,27.9,29.78,North,0,7.8,7.8,73,0.00,,,0.00,WUHU21623XXSP,2013-03-25 22:05:00,
2013-03-25 18:10:00,35.4,27.6,29.78,North,0,6.3,7.8,73,0.00,,,0.00,WUHU21623XXSP,2013-03-25 22:10:00,
2013-03-25 18:15:00,35.4,28.1,29.78,NNW,337,5.1,6.7,74,0.00,,,0.00,WUHU21623XXSP,2013-03-25 22:15:00,
2013-03-25 18:20:00,35.4,27.9,29.79,NNE,22,5.1,7.8,74,0.00,,,0.00,WUHU21623XXSP,2013-03-25 22:20:00,
2013-03-25 18:25:00,35.4,27.9,29.79,NNE,22,0.0,7.8,74,0.00,,,0.00,WUHU21623XXSP,2013-03-25 22:25:00,
2013-03-25 18:30:00,35.4,27.9,29.79,NNW,337,2.2,5.1,74,0.00,,,0.00,WUHU21623XXSP,2013-03-25 22:30:00,
2013-03-25 18:35:00,35.4,27.9,29.80,North,0,3.8,3.8,74,0.00,,,0.00,WUHU21623XXSP,2013-03-25 22:35:00,
2013-03-25 18:40:00,35.2,27.7,29.80,North,0,2.0,3.8,74,0.00,,,0.00,WUHU21623XXSP,2013-03-25 22:40:00,
2013-03-25 18:45:00,35.4,27.9,29.80,NNW,337,7.2,7.2,74,0.00,,,0.00,WUHU21623XXSP,2013-03-25 22:45:00,
2013-03-25 18:50:00,35.2,27.7,29.81,NE,45,6.5,7.2,74,0.00,,,0.00,WUHU21623XXSP,2013-03-25 22:50:00,
2013-03-25 18:55:00,35.2,27.7,29.81,NNE,22,7.6,7.6,74,0.00,,,0.00,WUHU21623XXSP,2013-03-25 22:55:00,
2013-03-25 19:00:00,35.2,27.7,29.81,North,0,3.6,7.6,74,0.00,,,0.00,WUHU21623XXSP,2013-03-25 23:00:00,
2013-03-25 19:05:00,35.2,27.7,29.81,NNW,337,6.9,7.8,74,0.00,,,0.00,WUHU21623XXSP,2013-03-25 23:05:00,
2013-03-25 19:10:00,35.2,28.0,29.82,NNW,337,6.9,7.8,75,0.00,,,0.00,WUHU21623XXSP,2013-03-25 23:10:00,
2013-03-25 19:15:00,34.9,27.7,29.82,NNW,337,3.8,6.9,75,0.00,,,0.00,WUHU21623XXSP,2013-03-25 23:15:00,
2013-03-25 19:20:00,34.9,27.7,29.82,NNW,337,8.3,8.3,75,0.00,,,0.00,WUHU21623XXSP,2013-03-25 23:20:00,
2013-03-25 19:25:00,34.9,27.7,29.83,NNW,337,6.9,8.3,75,0.00,,,0.00,WUHU21623XXSP,2013-03-25 23:25:00,
2013-03-25 19:30:00,34.7,27.8,29.83,North,0,6.7,7.8,76,0.00,,,0.00,WUHU21623XXSP,2013-03-25 23:30:00,
2013-03-25 19:35:00,34.5,27.6,29.83,NNW,337,4.5,7.8,76,0.00,,,0.00,WUHU21623XXSP,2013-03-25 23:35:00,
2013-03-25 19:40:00,34.3,27.5,29.83,North,0,9.6,9.6,76,0.00,,,0.00,WUHU21623XXSP,2013-03-25 23:40:00,
2013-03-25 19:45:00,34.3,27.5,29.84,NNW,337,3.8,9.6,76,0.00,,,0.00,WUHU21623XXSP,2013-03-25 23:45:00,
2013-03-25 19:50:00,34.3,27.8,29.84,North,0,2.7,8.9,77,0.00,,,0.00,WUHU21623XXSP,2013-03-25 23:50:00,
2013-03-25 19:55:00,34.3,27.8,29.85,NNW,337,0.0,8.9,77,0.00,,,0.00,WUHU21623XXSP,2013-03-25 23:55:00,
2013-03-25 20:00:00,34.3,27.8,29.85,NNW,337,8.3,8.3,77,0.00,,,0.00,WUHU21623XXSP,2013-03-26 00:00:00,
2013-03-25 20:05:00,34.3,27.8,29.85,North,0,7.6,8.3,77,0.00,,,0.00,WUHU21623XXSP,2013-03-26 00:05:00,
2013-03-25 20:10:00,34.3,27.8,29.85,NNE,22,5.4,7.6,77,0.00,,,0.00,WUHU21623XXSP,2013-03-26 00:10:00,
2013-03-25 20:15:00,34.2,27.6,29.85,NE,45,0.0,7.6,77,0.00,,,0.00,WUHU21623XXSP,2013-03-26 00:15:00,
2013-03-25 20:20:00,34.3,27.8,29.86,North,0,0.0,7.8,77,0.00,,,0.00,WUHU21623XXSP,2013-03-26 00:20:00,
2013-03-25 20:25:00,34.2,27.6,29.85,North,0,5.4,7.8,77,0.00,,,0.00,WUHU21623XXSP,2013-03-26 00:25:00,
2013-03-25 20:30:00,34.2,27.6,29.86,North,0,5.1,5.4,77,0.00,,,0.00,WUHU21623XXSP,2013-03-26 00:30:00,
2013-03-25 20:35:00,34.2,27.6,29.86,NNE,22,0.0,5.1,77,0.00,,,0.00,WUHU21623XXSP,2013-03-26 00:35:00,
2013-03-25 20:40:00,34.2,27.6,29.86,North,0,0.0,5.1,77,0.00,,,0.00,WUHU21623XXSP,2013-03-26 00:40:00,
2013-03-25 20:45:00,34.2,27.6,29.87,North,0,4.7,4.7,77,0.00,,,0.00,WUHU21623XXSP,2013-03-26 00:45:00,
2013-03-25 20:50:00,34.0,27.4,29.87,North,0,2.0,5.4,77,0.00,,,0.00,WUHU21623XXSP,2013-03-26 00:50:00,
2013-03-25 20:55:00,34.0,27.4,29.88,North,0,0.0,5.4,77,0.00,,,0.00,WUHU21623XXSP,2013-03-26 00:55:00,
2013-03-25 21:00:00,34.0,27.4,29.87,NNW,337,3.6,3.6,77,0.00,,,0.00,WUHU21623XXSP,2013-03-26 01:00:00,
2013-03-25 21:05:00,34.0,27.4,29.87,North,0,0.0,6.0,77,0.00,,,0.00,WUHU21623XXSP,2013-03-26 01:05:00,
2013-03-25 21:10:00,34.0,27.4,29.88,NNW,337,8.1,8.1,77,0.00,,,0.00,WUHU21623XXSP,2013-03-26 01:10:00,
2013-03-25 21:15:00,34.0,27.4,29.88,NNW,337,5.1,8.1,77,0.00,,,0.00,WUHU21623XXSP,2013-03-26 01:15:00,
2013-03-25 21:20:00,34.0,27.4,29.88,NNE,22,3.1,5.4,77,0.00,,,0.00,WUHU21623XXSP,2013-03-26 01:20:00,
2013-03-25 21:25:00,34.0,27.4,29.88,North,0,0.0,3.1,77,0.00,,,0.00,WUHU21623XXSP,2013-03-26 01:25:00,
2013-03-25 21:30:00,34.0,27.4,29.88,North,0,3.6,3.6,77,0.00,,,0.00,WUHU21623XXSP,2013-03-26 01:30:00,
2013-03-25 21:35:00,34.2,27.6,29.89,North,0,0.0,7.4,77,0.00,,,0.00,WUHU21623XXSP,2013-03-26 01:35:00,
2013-03-25 21:40:00,34.2,27.3,29.89,NNE,22,0.0,7.4,76,0.00,,,0.00,WUHU21623XXSP,2013-03-26 01:40:00,
2013-03-25 21:45:00,34.2,27.3,29.89,NNW,337,0.0,3.6,76,0.00,,,0.00,WUHU21623XXSP,2013-03-26 01:45:00,
2013-03-25 21:50:00,34.2,27.3,29.89,North,0,4.0,4.0,76,0.00,,,0.00,WUHU21623XXSP,2013-03-26 01:50:00,
2013-03-25 21:55:00,34.2,27.3,29.89,North,0,3.1,4.0,76,0.00,,,0.00,WUHU21623XXSP,2013-03-26 01:55:00,
2013-03-25 22:00:00,34.2,27.3,29.89,North,0,1.6,3.1,76,0.00,,,0.00,WUHU21623XXSP,2013-03-26 02:00:00,
2013-03-25 22:05:00,34.2,27.3,29.90,North,0,4.0,4.3,76,0.00,,,0.00,WUHU21623XXSP,2013-03-26 02:05:00,
2013-03-25 22:10:00,34.2,27.3,29.90,North,0,4.7,4.7,76,0.00,,,0.00,WUHU21623XXSP,2013-03-26 02:10:00,
2013-03-25 22:15:00,34.2,27.3,29.90,NNW,337,2.7,4.7,76,0.00,,,0.00,WUHU21623XXSP,2013-03-26 02:15:00,
2013-03-25 22:20:00,34.2,27.3,29.90,NNW,337,0.0,4.7,76,0.00,,,0.00,WUHU21623XXSP,2013-03-26 02:20:00,
2013-03-25 22:25:00,34.2,27.0,29.91,NNW,337,4.3,4.7,75,0.00,,,0.00,WUHU21623XXSP,2013-03-26 02:25:00,
2013-03-25 22:30:00,34.2,27.0,29.91,NNW,337,3.1,4.3,75,0.00,,,0.00,WUHU21623XXSP,2013-03-26 02:30:00,
2013-03-25 22:35:00,34.0,26.8,29.91,NNW,337,0.0,3.1,75,0.00,,,0.00,WUHU21623XXSP,2013-03-26 02:35:00,
2013-03-25 22:40:00,34.0,26.8,29.91,NNW,337,4.0,4.0,75,0.00,,,0.00,WUHU21623XXSP,2013-03-26 02:40:00,
2013-03-25 22:45:00,34.0,26.8,29.91,NNW,337,4.0,4.0,75,0.00,,,0.00,WUHU21623XXSP,2013-03-26 02:45:00,
2013-03-25 22:50:00,34.0,26.8,29.91,NNW,337,4.0,4.0,75,0.00,,,0.00,WUHU21623XXSP,2013-03-26 02:50:00,
2013-03-25 22:55:00,34.0,26.8,29.91,North,0,1.3,4.0,75,0.00,,,0.00,WUHU21623XXSP,2013-03-26 02:55:00,
2013-03-25 23:00:00,34.0,26.8,29.91,NNW,337,4.0,4.0,75,0.00,,,0.00,WUHU21623XXSP,2013-03-26 03:00:00,
2013-03-25 23:05:00,34.0,26.8,29.91,NNW,337,0.0,4.0,75,0.00,,,0.00,WUHU21623XXSP,2013-03-26 03:05:00,
2013-03-25 23:10:00,34.0,26.8,29.91,North,0,1.1,1.1,75,0.00,,,0.00,WUHU21623XXSP,2013-03-26 03:10:00,
2013-03-25 23:15:00,34.0,26.8,29.91,NNW,337,0.9,1.1,75,0.00,,,0.00,WUHU21623XXSP,2013-03-26 03:15:00,
2013-03-25 23:20:00,33.8,26.6,29.92,NNW,337,5.1,5.1,75,0.00,,,0.00,WUHU21623XXSP,2013-03-26 03:20:00,
2013-03-25 23:25:00,33.8,26.6,29.91,NNW,337,0.0,5.1,75,0.00,,,0.00,WUHU21623XXSP,2013-03-26 03:25:00,
2013-03-25 23:30:00,33.8,26.6,29.91,NNW,337,0.0,5.1,75,0.00,,,0.00,WUHU21623XXSP,2013-03-26 03:30:00,
2013-03-25 23:35:00,33.6,26.4,29.92,NNW,337,4.9,4.9,75,0.00,,,0.00,WUHU21623XXSP,2013-03-26 03:35:00,
2013-03-25 23:40:00,33.6,26.4,29.93,NNW,337,4.7,4.9,75,0.00,,,0.00,WUHU21623XXSP,2013-03-26 03:40:00,
2013-03-25 23:45:00,33.6,26.4,29.93,North,0,2.0,5.1,75,0.00,,,0.00,WUHU21623XXSP,2013-03-26 03:45:00,
2013-03-25 23:50:00,33.6,26.4,29.93,NNW,337,0.0,5.1,75,0.00,,,0.00,WUHU21623XXSP,2013-03-26 03:50:00,
2013-03-25 23:55:00,33.6,26.4,29.93,SSW,202,4.7,6.5,75,0.00,,,0.00,WUHU21623XXSP,2013-03-26 03:55:00,